Вернуться в каталог

STARLINK-31050

АктивенСвязьVLEO
NORAD 58546·PAYLOAD·🇺🇸 United States

Запущен Dec 8, 2023 с Vandenberg Space Force Base

Loading…

Ближайшие Пролёты (ближайшие 24 часа)

TLE

СвежийSource: CelesTrak SupGP

Эпоха: Sep 15, 2026, 02:40 UTC

1 58546C 23192R   26258.11159722 -.00018323  00000+0 -54134-3 0  2582
2 58546  53.1586 259.0635 0001328  89.0625 166.7734 15.34401135    14

Отслеживайте STARLINK-31050 в реальном времени с AllMySat

Download on the App Store